Temperature
-0 -1 -1 -1 -2 -2 -2 -2 -2 -3 -3 -3 -3 -3 -3 -3 -3 -3 -3 -3 -3 -2 -2 -2 -1 -1 -1 -1 -1 -1 -1 -0 -0 0 1 2 3 4
-1 -2 -2 -2 -2 -2 -3 -3 -3 -3 -4 -4 -4 -4 -4 -4 -4 -4 -4 -4 -4 -3 -3 -3 -3 -2 -2 -2 -2 -2 -1 -1 -1 -0 0 1 2 3
-2 -3 -3 -3 -3 -3 -3 -4 -4 -4 -4 -4 -5 -5 -5 -5 -5 -5 -5 -5 -5 -4 -4 -4 -3 -3 -3 -3 -2 -2 -2 -2 -1 -1 -0 0 1 2
-3 -4 -4 -4 -4 -4 -4 -4 -5 -5 -5 -5 -6 -6 -6 -6 -5 -5 -5 -5 -5 -5 -5 -4 -4 -4 -4 -3 -3 -3 -3 -2 -2 -1 -1 -0 1 1
-4 -5 -5 -5 -5 -5 -5 -5 -5 -6 -6 -6 -6 -6 -6 -6 -6 -6 -6 -6 -6 -6 -6 -6 -5 -5 -5 -4 -4 -4 -3 -3 -2 -2 -1 -1 -0 0
-5 -6 -6 -6 -6 -6 -6 -6 -6 -6 -6 -6 -7 -7 -7 -6 -6 -6 -6 -7 -7 -7 -7 -7 -6 -6 -6 -5 -5 -4 -4 -4 -3 -2 -2 -1 -1 -0
-6 -6 -7 -7 -6 -6 -6 -6 -6 -6 -7 -7 -7 -7 -7 -7 -7 -7 -7 -7 -7 -8 -8 -7 -7 -7 -7 -6 -6 -5 -5 -4 -3 -3 -2 -2 -1 -0
-7 -7 -7 -7 -7 -7 -7 -7 -7 -7 -7 -7 -7 -8 -8 -8 -8 -8 -8 -8 -8 -8 -8 -8 -8 -8 -7 -7 -6 -5 -5 -4 -4 -3 -3 -2 -2 -1
-7 -8 -8 -8 -7 -7 -7 -7 -7 -7 -7 -8 -8 -8 -8 -8 -9 -8 -8 -8 -8 -8 -9 -8 -8 -8 -7 -7 -6 -6 -5 -5 -4 -4 -4 -3 -2 -1
-8 -8 -8 -8 -8 -8 -8 -7 -8 -8 -8 -8 -9 -9 -9 -9 -9 -9 -9 -9 -9 -9 -9 -9 -8 -8 -8 -8 -7 -7 -6 -6 -5 -5 -4 -3 -2 -1
-8 -8 -8 -8 -8 -8 -8 -8 -8 -8 -9 -9 -9 -9 -9 -9 -9 -9 -9 -9 -9 -9 -9 -9 -9 -9 -9 -8 -8 -7 -7 -6 -6 -5 -4 -3 -2 -1
-8 -8 -8 -8 -8 -8 -8 -8 -9 -9 -9 -9 -10 -10 -10 -10 -10 -10 -10 -10 -10 -10 -9 -10 -10 -9 -9 -8 -8 -7 -7 -7 -6 -5 -4 -2 -1 -1
-9 -9 -9 -9 -9 -8 -8 -9 -9 -9 -9 -10 -10 -11 -10 -11 -10 -10 -10 -10 -10 -10 -10 -10 -9 -9 -9 -9 -8 -7 -7 -7 -6 -4 -3 -2 -1 -0
-9 -9 -9 -9 -9 -9 -9 -10 -10 -10 -11 -11 -11 -11 -11 -11 -11 -10 -10 -10 -10 -9 -9 -9 -9 -9 -9 -8 -8 -7 -7 -6 -5 -4 -2 -0 1 1
-9 -9 -9 -9 -9 -10 -10 -10 -10 -11 -11 -11 -11 -11 -11 -11 -11 -10 -10 -9 -9 -8 -8 -8 -8 -8 -8 -8 -8 -8 -7 -5 -4 -3 -1 0 1 2
-10 -10 -10 -10 -11 -11 -11 -11 -11 -12 -11 -11 -12 -12 -11 -11 -10 -10 -10 -9 -9 -8 -8 -9 -9 -9 -8 -8 -8 -8 -7 -6 -3 -2 -1 1 2 2
-9 -10 -11 -11 -12 -12 -12 -12 -12 -12 -12 -12 -12 -12 -11 -11 -10 -10 -10 -9 -9 -9 -9 -9 -9 -8 -8 -8 -8 -7 -6 -4 -3 -1 -0 0 1 2
-10 -11 -12 -12 -12 -12 -12 -12 -12 -12 -12 -12 -12 -11 -11 -11 -10 -10 -10 -9 -9 -9 -9 -9 -9 -8 -7 -8 -8 -7 -5 -3 -2 -1 -1 -0 -0 0
-12 -12 -12 -12 -12 -12 -12 -12 -12 -12 -12 -12 -11 -11 -11 -11 -10 -10 -10 -9 -9 -9 -9 -9 -9 -9 -9 -8 -7 -6 -5 -3 -2 -2 -2 -1 -1 -1
-12 -12 -13 -13 -13 -13 -13 -12 -12 -12 -12 -11 -11 -11 -11 -10 -10 -10 -10 -10 -9 -9 -9 -8 -8 -8 -9 -8 -7 -6 -4 -3 -3 -3 -2 -2 -2 -2
-13 -13 -13 -13 -13 -13 -13 -13 -12 -12 -11 -11 -10 -10 -10 -10 -10 -9 -9 -9 -9 -9 -9 -8 -8 -8 -7 -7 -7 -6 -5 -4 -3 -3 -3 -3 -3 -3
-13 -13 -13 -13 -13 -13 -13 -13 -12 -12 -11 -10 -10 -10 -10 -9 -9 -9 -9 -9 -9 -9 -9 -8 -8 -7 -7 -7 -7 -6 -6 -5 -4 -4 -4 -3 -3 -3
-13 -13 -13 -12 -12 -12 -13 -12 -12 -11 -10 -10 -10 -9 -9 -9 -8 -8 -8 -8 -8 -8 -8 -8 -8 -7 -7 -7 -7 -6 -6 -5 -5 -5 -5 -4 -4 -4
Wind_Speed
8 9 8 8 8 8 8 8 12 21 20 13 8 9 7 7 16 13 11 27 34 35 36 36 36 36 36 36 36 36 36 36 36 36 35 34 33 32
8 10 10 9 8 7 8 8 8 13 21 17 12 10 12 17 22 13 13 32 33 33 34 35 35 36 36 37 37 37 37 37 37 37 36 35 34 32
10 12 13 12 10 8 8 7 8 9 16 18 15 14 14 14 16 11 12 13 15 29 34 36 36 36 36 36 37 37 37 36 36 36 35 34 33 31
13 14 15 14 13 10 9 9 8 9 13 20 18 15 16 15 16 15 17 17 12 27 33 35 35 36 36 36 36 36 36 36 36 35 34 33 32 31
14 15 16 15 15 11 10 9 9 13 12 16 19 16 15 15 17 18 16 12 16 21 28 31 33 35 36 37 36 36 35 34 33 33 32 31 30 30
12 15 16 16 15 13 13 11 12 13 14 16 17 16 16 14 15 16 15 9 12 17 22 26 30 34 35 35 35 35 34 33 32 31 29 28 28 29
13 15 16 21 24 20 18 14 14 14 15 16 17 18 17 16 16 14 17 15 12 12 15 17 16 16 18 26 31 33 33 33 32 30 29 28 28 28
15 15 16 17 21 27 30 29 26 20 18 18 18 20 21 19 16 17 17 20 20 8 11 17 14 17 16 14 26 32 32 31 31 30 30 29 29 28
14 15 17 18 23 15 23 28 24 27 28 20 20 20 21 20 20 21 20 21 21 15 15 20 14 16 14 18 29 31 32 32 31 31 31 30 30 29
12 14 16 15 18 22 20 18 17 17 22 19 15 18 19 18 20 21 22 21 17 13 14 18 15 15 17 14 26 31 32 32 31 30 29 29 29 29
13 15 17 17 27 31 23 21 21 17 23 28 30 29 33 33 27 18 17 18 19 14 9 15 17 16 15 15 20 28 28 28 29 30 30 29 27 25
13 14 21 25 30 33 23 21 20 17 17 19 19 22 19 21 27 18 16 17 19 17 10 11 16 15 13 9 9 9 14 23 28 29 29 28 26 16
15 14 15 29 33 35 30 17 22 24 17 15 15 15 14 13 13 14 15 16 18 18 14 12 15 15 14 12 9 10 11 11 14 18 22 25 24 19
16 15 17 32 34 33 24 25 31 26 13 15 15 15 14 14 14 16 17 17 17 20 20 18 15 15 14 15 11 6 8 11 12 13 12 15 17 20
16 25 30 32 29 19 24 29 24 14 15 15 15 15 13 14 15 15 16 15 16 16 15 15 13 12 10 10 9 9 11 10 10 9 9 6 4 5
16 21 26 25 21 22 21 17 13 14 16 15 16 15 13 13 14 14 15 14 13 12 9 8 9 9 8 7 9 11 11 8 9 10 7 3 4 5
20 12 10 12 12 13 13 13 13 14 15 14 15 15 15 15 14 13 12 13 12 11 9 6 8 9 8 6 6 8 10 8 7 6 4 8 10 9
20 12 13 13 14 15 16 16 15 15 15 15 15 15 15 15 15 14 12 12 12 11 10 8 8 7 4 2 4 8 8 5 5 6 7 12 13 12
14 12 13 14 14 15 15 15 16 15 15 14 14 14 14 14 14 14 13 12 12 11 9 7 6 6 6 6 7 11 7 4 6 10 11 12 12 12
11 12 13 14 14 15 15 15 15 15 14 14 14 14 14 14 14 13 12 12 12 10 9 7 6 5 4 4 5 7 14 8 8 11 12 13 15 20
13 13 13 14 14 14 15 15 15 15 15 15 14 14 13 13 13 12 12 15 12 8 9 8 7 10 4 3 4 9 13 20 17 10 8 11 14 14
14 14 14 14 14 14 14 14 14 15 15 14 14 14 13 12 12 13 11 11 9 8 7 6 7 6 6 7 9 10 12 14 20 26 23 15 7 8
14 14 14 14 14 13 13 14 15 15 14 14 14 13 13 12 11 10 10 9 8 7 5 5 5 5 6 7 8 10 14 14 13 15 16 24 28 28
Wind_Direction
298 294 292 286 283 283 287 293 299 303 302 302 298 294 295 297 300 303 302 304 302 299 298 298 297 296 295 294 292 291 290 290 289 287 285 283 280 278
301 297 295 293 288 284 282 282 282 291 297 300 302 302 304 303 301 300 299 299 298 298 298 297 296 295 293 292 291 289 288 287 286 284 282 279 277 277
309 307 302 300 296 291 287 285 283 286 293 299 301 302 300 299 298 288 288 286 291 297 298 297 295 293 291 291 290 289 288 287 285 282 279 276 276 276
314 308 306 306 301 297 292 288 290 292 293 297 298 300 298 297 295 291 296 294 294 297 298 297 296 296 295 294 293 291 290 288 285 282 279 276 275 276
309 307 307 305 301 297 294 295 295 297 292 293 295 297 296 296 296 294 289 287 293 298 300 298 297 296 294 293 292 292 292 292 289 284 280 276 274 274
306 304 303 300 299 300 300 291 294 295 294 293 295 297 297 296 295 297 297 288 292 298 295 292 292 294 293 293 293 293 293 291 288 286 283 280 277 274
304 301 299 301 304 305 303 304 304 301 300 300 300 301 301 303 302 302 301 301 291 289 290 288 289 287 288 289 289 287 286 286 286 286 284 282 280 276
306 304 302 301 304 309 309 306 304 305 306 304 303 302 302 303 303 302 301 301 299 286 280 290 289 287 285 283 285 287 288 290 290 290 287 283 280 277
303 306 308 310 312 304 302 306 307 305 304 301 300 300 301 302 301 298 296 294 294 298 297 293 288 287 288 289 293 294 295 293 291 290 287 282 277 272
300 304 304 305 306 306 306 310 306 301 298 300 295 296 298 299 296 298 299 298 293 288 286 289 293 292 293 290 293 292 291 290 290 289 289 284 275 267
303 306 307 305 305 311 314 310 307 304 306 305 304 304 304 305 305 304 301 300 298 295 282 287 293 294 291 288 285 285 287 291 293 290 287 281 273 264
309 308 309 310 311 314 314 311 312 309 308 310 308 305 301 299 301 299 298 298 298 298 288 286 292 296 295 273 264 276 287 290 290 288 285 280 272 262
316 314 311 312 313 315 317 315 311 316 318 314 308 304 301 299 298 296 294 293 294 293 293 290 290 289 286 289 283 275 276 282 288 286 283 276 267 254
315 312 311 313 317 320 323 318 319 323 318 311 308 307 308 307 305 301 296 291 285 285 287 287 287 287 288 291 297 293 289 289 287 284 279 273 260 242
311 312 314 318 323 325 320 321 324 319 313 311 311 310 307 303 304 304 301 297 291 288 286 285 287 290 288 293 300 303 308 302 294 294 295 287 250 205
310 312 319 322 323 322 321 318 315 312 315 312 311 309 308 307 308 309 310 311 310 308 302 303 307 302 295 292 297 302 305 301 308 311 317 10 63 91
323 323 322 322 322 319 318 317 317 318 317 315 314 314 314 314 313 314 312 316 318 320 323 320 316 300 273 273 303 310 312 309 308 320 16 63 62 70
332 328 323 320 319 320 320 320 320 319 319 317 315 313 314 315 315 316 317 321 325 327 330 333 338 336 321 252 308 321 324 325 353 25 54 75 72 68
330 321 319 319 319 318 318 317 318 317 316 315 314 313 314 314 315 317 322 326 327 328 332 337 346 352 2 358 334 342 348 6 54 65 66 73 76 75
321 319 318 318 317 317 317 317 316 316 316 315 314 313 314 314 315 318 323 326 328 330 333 340 344 346 337 318 321 356 24 36 67 81 81 81 83 84
321 319 317 316 316 316 315 314 314 314 314 314 314 314 315 316 318 321 323 327 331 331 340 347 338 344 332 331 30 47 47 51 56 65 75 92 94 92
320 318 316 314 315 314 314 314 314 314 314 314 313 314 316 318 320 322 324 328 330 332 338 344 352 8 23 44 57 59 58 57 56 58 57 60 86 96
318 316 314 313 313 313 313 313 313 312 312 312 313 315 317 320 322 322 324 326 329 336 349 5 14 27 36 44 62 67 65 64 66 68 71 77 85 92
Height
1433 1429 1425 1421 1417 1413 1409 1404 1397 1382 1370 1368 1366 1364 1362 1358 1354 1350 1345 1341 1336 1331 1327 1323 1319 1314 1310 1307 1304 1301 1298 1295 1292 1290 1288 1287 1287 1286
1428 1423 1419 1414 1410 1406 1402 1397 1392 1384 1369 1361 1357 1355 1351 1348 1345 1342 1336 1332 1326 1322 1317 1313 1309 1304 1300 1296 1292 1289 1286 1283 1280 1278 1276 1275 1275 1275
1421 1417 1411 1407 1402 1398 1394 1389 1384 1379 1368 1356 1352 1347 1342 1338 1333 1330 1326 1321 1316 1312 1308 1303 1298 1293 1289 1284 1280 1277 1274 1271 1268 1266 1264 1263 1263 1263
1414 1409 1404 1400 1395 1391 1386 1381 1376 1371 1365 1353 1344 1339 1334 1329 1324 1318 1315 1311 1307 1302 1297 1292 1287 1282 1277 1273 1269 1265 1261 1258 1256 1253 1252 1251 1251 1251
1408 1403 1398 1393 1387 1383 1379 1373 1368 1363 1357 1349 1339 1333 1326 1321 1315 1308 1304 1299 1295 1291 1286 1281 1275 1270 1266 1261 1257 1253 1249 1246 1243 1241 1240 1239 1239 1239
1401 1396 1391 1387 1382 1377 1371 1366 1361 1355 1349 1342 1333 1325 1319 1313 1307 1299 1291 1287 1283 1280 1274 1269 1264 1259 1254 1249 1245 1241 1238 1234 1232 1230 1228 1228 1227 1228
1394 1389 1385 1381 1377 1372 1366 1360 1354 1348 1341 1334 1326 1318 1311 1304 1298 1291 1283 1276 1270 1269 1262 1255 1252 1246 1240 1236 1233 1228 1225 1223 1221 1219 1217 1217 1216 1216
1388 1382 1378 1374 1370 1365 1360 1354 1349 1342 1335 1328 1319 1312 1304 1298 1291 1284 1276 1268 1256 1257 1252 1243 1241 1234 1229 1225 1221 1218 1215 1212 1210 1208 1206 1205 1205 1205
1383 1377 1372 1368 1363 1356 1350 1345 1340 1335 1331 1323 1313 1305 1297 1290 1283 1274 1267 1260 1251 1246 1243 1231 1228 1223 1219 1215 1211 1207 1204 1201 1198 1196 1194 1193 1192 1193
1378 1373 1367 1360 1355 1350 1342 1336 1330 1325 1320 1313 1306 1297 1290 1282 1276 1268 1259 1250 1242 1239 1236 1225 1217 1213 1208 1204 1200 1196 1193 1189 1186 1183 1181 1180 1180 1181
1372 1367 1362 1355 1349 1343 1336 1328 1320 1314 1309 1303 1296 1289 1282 1275 1268 1260 1251 1243 1233 1228 1227 1220 1209 1203 1196 1191 1188 1185 1182 1178 1174 1171 1168 1167 1168 1170
1365 1360 1355 1349 1343 1336 1329 1320 1312 1305 1298 1291 1284 1278 1271 1265 1259 1254 1246 1237 1227 1219 1215 1211 1202 1195 1184 1180 1177 1175 1171 1167 1162 1158 1156 1155 1157 1159
1360 1353 1347 1342 1336 1329 1322 1315 1307 1300 1291 1284 1276 1268 1262 1256 1250 1244 1238 1231 1222 1212 1207 1202 1194 1188 1183 1172 1168 1165 1161 1156 1151 1147 1145 1144 1146 1149
1355 1348 1341 1335 1329 1322 1315 1308 1302 1294 1286 1277 1270 1262 1255 1248 1241 1234 1228 1221 1215 1206 1199 1194 1188 1182 1176 1169 1161 1156 1152 1148 1143 1138 1136 1135 1137 1140
1351 1343 1336 1329 1322 1315 1309 1303 1296 1288 1280 1273 1265 1257 1250 1242 1234 1227 1219 1213 1206 1200 1193 1188 1182 1176 1172 1166 1160 1153 1147 1140 1137 1134 1131 1130 1131 1135
1343 1336 1330 1323 1317 1310 1303 1296 1290 1284 1277 1270 1261 1253 1245 1237 1229 1223 1215 1208 1200 1193 1189 1183 1177 1172 1167 1163 1159 1152 1147 1142 1136 1133 1130 1129 1130 1134
1338 1330 1324 1317 1310 1304 1298 1291 1285 1279 1272 1265 1257 1248 1240 1233 1226 1219 1213 1206 1199 1192 1185 1179 1173 1167 1163 1161 1157 1152 1146 1142 1139 1136 1134 1133 1134 1137
1335 1327 1321 1314 1308 1301 1294 1287 1281 1275 1268 1261 1253 1246 1238 1231 1223 1216 1211 1205 1199 1192 1186 1179 1171 1166 1163 1161 1159 1154 1149 1146 1144 1143 1141 1140 1143 1146
1331 1324 1318 1312 1305 1299 1292 1285 1278 1271 1264 1257 1250 1243 1236 1229 1222 1216 1210 1204 1198 1192 1187 1181 1175 1170 1167 1164 1161 1158 1155 1153 1152 1151 1150 1151 1153 1157
1328 1322 1315 1309 1302 1296 1289 1282 1275 1267 1260 1254 1247 1240 1234 1227 1221 1215 1209 1204 1198 1193 1188 1183 1179 1175 1172 1170 1166 1164 1162 1161 1160 1160 1161 1163 1166 1170
1324 1318 1312 1305 1299 1292 1286 1279 1272 1265 1258 1251 1244 1238 1232 1226 1220 1215 1209 1204 1199 1195 1190 1186 1183 1180 1178 1175 1173 1171 1170 1170 1170 1170 1172 1173 1176 1181
1321 1314 1308 1302 1295 1289 1282 1275 1269 1262 1255 1249 1242 1236 1231 1225 1220 1214 1209 1205 1201 1197 1194 1190 1188 1185 1183 1181 1180 1179 1179 1179 1180 1180 1182 1184 1186 1190
1317 1311 1304 1298 1292 1285 1279 1272 1266 1259 1253 1247 1241 1235 1230 1225 1220 1215 1210 1206 1203 1200 1197 1195 1193 1191 1190 1188 1187 1188 1188 1189 1190 1191 1195 1197 1199 1202